Retour au catalogue

STARLINK-3868

ActifCommunicationsVLEO
NORAD 52649·PAYLOAD·🇺🇸 United States

Lancé May 14, 2022 depuis Cape Canaveral Space Force Station

Loading…

Prochains Passages (prochaines 24 heures)

TLE

FraisSource: CelesTrak SupGP

Époque: Sep 15, 2026, 02:06 UTC

1 52649C 22052BD  26258.08798611  .00043545  00000+0  14005-2 0  2580
2 52649  53.1577 116.0097 0001328  82.2203  82.3863 15.31675442    10

Suivez STARLINK-3868 en temps réel avec AllMySat

Download on the App Store